カタログに戻る

STARLINK-34733

運用中通信VLEO
NORAD 66487·PAYLOAD·🇺🇸 United States

打ち上げ Nov 15, 2025 から Cape Canaveral Space Force Station

Loading…

次のパス (今後24時間)

TLE

最新Source: CelesTrak SupGP

元期: Sep 14, 2026, 21:31 UTC

1 66487C 25263C   26257.89701389  .00000924  00000+0  33451-4 0  2577
2 66487  43.0028   1.8253 0001732 271.0365 302.2916 15.27579048    18

AllMySatでSTARLINK-34733をリアルタイム追跡

Download on the App Store